sat.trackr.live / text

‹ back to catalog

STARLINK-4775

NORAD 53934 · 2022-119BA

PAYLOAD ACTIVE UNKNOWN

§ Identity

Operator
Country
US
Launch date
2022-09-24
Launch site
AFETR
Launch vehicle
Mass (kg)
RCS (m²)

Purposes: comms

External: N2YO · Heavens-Above · Gunter

§ Orbital elements

Epoch: 2026-09-20T08:42:43.121376Z

Period
95.44 min
Inclination
53.1566°
Eccentricity
0.0001742
Mean motion
15.08827326 rev/d
Perigee alt
538.6 km
Apogee alt
541.0 km
Semi-major
6,917.9 km
B*
-1.9287e-5
RAAN
144.5871°
Arg perigee
125.9028°
Mean anomaly
234.2126°
Rev number
22,144

§ Raw data

STARLINK-47751 53934U 22119BA  26263.36299909 -.00000595  00000+0 -19287-4 0  99962 53934  53.1566 144.5871 0001742 125.9028 234.2126 15.08827326221448

JSON: /api/v1/satellites/53934 · /tle

For live sub-satellite position, see the globe view (requires WebGL).

§ Visibility from observer

Set your observer location to see the next 7 days of passes ≥ 10°. The values pass through the URL so the page stays shareable.

No JS? Fill the form by hand. The geolocation button needs JavaScript.